This is the latest recevied weather packets stored in our database for station/object DB5ZQ. If no packets are shown the sender has not sent any weather packets the latest 10 day(s).
| Time | Temp. | Humidity | Pressure | Rain* | Wind** | Luminosity | Snow |
|---|---|---|---|---|---|---|---|
| 1787934791 | 27.22° C | 43% | 1006.9 hPa | 0 mm | - | - | - |
| 1787934491 | 27.22° C | 43% | 1007 hPa | 0 mm | - | - | - |
| 1787934191 | 27.22° C | 43% | 1007 hPa | 0 mm | - | - | - |
| 1787933890 | 27.22° C | 42% | 1007 hPa | 0 mm | - | - | - |
| 1787933590 | 27.22° C | 42% | 1006.9 hPa | 0 mm | - | - | - |
| 1787933290 | 26.67° C | 44% | 1006.8 hPa | 0 mm | - | - | - |
| 1787932990 | 26.67° C | 44% | 1006.8 hPa | 0 mm | - | - | - |
| 1787932689 | 26.67° C | 44% | 1006.6 hPa | 0 mm | - | - | - |
| 1787932389 | 26.11° C | 46% | 1006.5 hPa | 0 mm | - | - | - |
| 1787932089 | 26.11° C | 45% | 1006.7 hPa | 0 mm | - | - | - |
| 1787931788 | 26.67° C | 45% | 1006.5 hPa | 0 mm | - | - | - |
| 1787931488 | 26.67° C | 45% | 1006 hPa | 0 mm | - | - | - |
| 1787931188 | 26.67° C | 45% | 1005.9 hPa | 0 mm | - | - | - |
| 1787930888 | 26.67° C | 45% | 1006.1 hPa | 0 mm | - | - | - |
| 1787930587 | 27.22° C | 48% | 1006.1 hPa | 0 mm | - | - | - |
| 1787930287 | 27.78° C | 52% | 1006.3 hPa | 0 mm | - | - | - |
| 1787929987 | 28.33° C | 50% | 1006 hPa | 0 mm | - | - | - |
| 1787929686 | 28.33° C | 48% | 1006.2 hPa | 0 mm | - | - | - |
| 1787929386 | 28.33° C | 50% | 1006.4 hPa | 0 mm | - | - | - |
| 1787929086 | 28.33° C | 50% | 1006.4 hPa | 0 mm | - | - | - |
| 1787928786 | 28.33° C | 50% | 1006.2 hPa | 0 mm | - | - | - |
| 1787928485 | 28.33° C | 49% | 1006.2 hPa | 0 mm | - | - | - |
| 1787928185 | 27.78° C | 51% | 1006.1 hPa | 0 mm | - | - | - |
| 1787927885 | 27.78° C | 53% | 1006.1 hPa | 0 mm | - | - | - |
| 1787927584 | 27.78° C | 54% | 1006.1 hPa | 0 mm | - | - | - |
* Rain latest hour (hover to see other rain measurements)
** Current wind speed in m/s (hover to see current wind gust speed)